Weather History for Lago Vista, TX

Change the Weather History Date:

Sunday, December 1, 2013

  Actual Average (KATT) Record (KATT)
Temperature  
Mean Temperature 63 °F 55 °F  
Max Temperature 70 °F 66 °F 83 °F (2012)
Min Temperature 56 °F 45 °F 25 °F (1979)
Degree Days  
Heating Degree Days 2 10  
Month to date heating degree days 10  
Since 1 July heating degree days 222  
Cooling Degree Days 0 1  
Month to date cooling degree days 1  
Year to date cooling degree days 3127  
Growing Degree Days 13 (Base 50)    
Moisture  
Dew Point 56 °F    
Average Humidity 78    
Maximum Humidity 94    
Minimum Humidity 61    
Precipitation  
Precipitation 0.00 in 0.08 in 3.73 in (1953)
Month to date precipitation 0.08  
Year to date precipitation 32.00  
Snow  
Snow 0.00 in - - ()
Month to date snowfall  
Since 1 July snowfall  
Snow Depth -    
Sea Level Pressure  
Sea Level Pressure 30.10 in    
Wind  
Wind Speed 8 mph (SSW)    
Max Wind Speed 14 mph    
Max Gust Speed 22 mph    
Visibility 10 miles    
Events      
T = Trace of Precipitation, MM = Missing Value Source: NWS Daily Summary

Daily Weather History Graph

Daily Weather History Graph

Search for Another Location

Airport:

Trip Planner

Search our weather history database for the weather conditions in past years. The results will help you decide how hot, cold, wet, or windy it might be!

Date:

Astronomy

Dec. 01, 2013 Rise Set
Actual Time 7:11 AM CST 5:30 PM CST
Civil Twilight 6:45 AM CST 5:56 PM CST
Nautical Twilight 6:15 AM CST 6:26 PM CST
Astronomical Twilight 5:46 AM CST 6:55 PM CST
Moon 5:36 AM CST (12/1) 4:37 PM CST (12/1)
Length of Visible Light 11h 11m
Length of Day
10h 19m
Waning Crescent, 2% of the Moon is Illuminated
Dec 1
Waning Crescent
Dec 2
New
Dec 9
First Quarter
Dec 17
Full
Dec 25
Last Quarter

Hourly Weather History & Observations

Time (CST) Temp. Dew Point Humidity Pressure Visibility Wind Dir Wind Speed Gust Speed Precip Events Conditions
12:15 AM 59.5 °F 55.0 °F 85% 30.20 in 10.0 mi SSW 9.2 mph - N/A   Overcast
12:35 AM 59.4 °F 55.0 °F 86% 30.20 in 10.0 mi SSW 6.9 mph - N/A   Overcast
12:55 AM 59.4 °F 55.0 °F 86% 30.20 in 10.0 mi SSW 6.9 mph - N/A   Overcast
1:15 AM 59.2 °F 55.0 °F 86% 30.20 in 10.0 mi SSW 6.9 mph - N/A   Overcast
1:35 AM 59.2 °F 55.2 °F 87% 30.20 in 10.0 mi SSW 5.8 mph - N/A   Overcast
1:55 AM 59.2 °F 55.0 °F 86% 30.20 in 10.0 mi SSW 4.6 mph - N/A   Overcast
2:15 AM 59.2 °F 55.0 °F 86% 30.20 in 10.0 mi South 6.9 mph - N/A   Overcast
2:35 AM 59.0 °F 55.0 °F 87% 30.20 in 10.0 mi South 5.8 mph - N/A   Overcast
2:55 AM 58.5 °F 54.9 °F 88% 30.19 in 10.0 mi South 4.6 mph - N/A   Overcast
3:15 AM 59.0 °F 54.9 °F 86% 30.18 in 10.0 mi South 4.6 mph - N/A   Overcast
3:35 AM 59.0 °F 55.0 °F 87% 30.18 in 10.0 mi South 5.8 mph - N/A   Overcast
3:55 AM 59.2 °F 55.2 °F 87% 30.18 in 10.0 mi South 5.8 mph - N/A   Overcast
4:15 AM 59.2 °F 55.0 °F 86% 30.17 in 10.0 mi South 8.1 mph - N/A   Overcast
4:35 AM 59.2 °F 55.0 °F 86% 30.17 in 10.0 mi South 6.9 mph - N/A   Overcast
4:55 AM 58.6 °F 54.9 °F 87% 30.16 in 10.0 mi South 8.1 mph - N/A   Overcast
5:15 AM 58.1 °F 54.9 °F 89% 30.16 in 10.0 mi South 8.1 mph - N/A   Overcast
5:35 AM 59.0 °F 55.4 °F 88% 30.15 in 10.0 mi South 8.1 mph - N/A   Overcast
5:55 AM 59.5 °F 55.4 °F 86% 30.17 in 10.0 mi SSW 8.1 mph 16.1 mph N/A   Overcast
6:15 AM 59.0 °F 55.2 °F 87% 30.17 in 10.0 mi SSW 4.6 mph - N/A   Overcast
6:35 AM 58.3 °F 54.7 °F 88% 30.16 in 10.0 mi South 4.6 mph - N/A   Mostly Cloudy
6:55 AM 57.2 °F 54.7 °F 91% 30.16 in 10.0 mi South 3.5 mph - N/A   Scattered Clouds
7:15 AM 56.3 °F 54.0 °F 92% 30.16 in 10.0 mi South 4.6 mph - N/A   Clear
7:35 AM 56.3 °F 54.5 °F 94% 30.16 in 10.0 mi South 3.5 mph - N/A   Clear
7:55 AM 57.0 °F 55.2 °F 94% 30.18 in 10.0 mi SSW 4.6 mph - N/A   Clear
8:15 AM 57.2 °F 54.9 °F 92% 30.16 in 10.0 mi SSE 4.6 mph - N/A   Clear
8:35 AM 58.1 °F 55.2 °F 90% 30.17 in 10.0 mi South 4.6 mph - N/A   Clear
8:55 AM 60.1 °F 55.6 °F 85% 30.18 in 10.0 mi SSW 5.8 mph - N/A   Scattered Clouds
9:15 AM 61.3 °F 55.6 °F 81% 30.16 in 10.0 mi South 8.1 mph 16.1 mph N/A   Clear
9:35 AM 62.6 °F 55.9 °F 79% 30.18 in 10.0 mi SSW 6.9 mph - N/A   Scattered Clouds
9:55 AM 64.2 °F 56.5 °F 76% 30.18 in 10.0 mi SSW 4.6 mph - N/A   Mostly Cloudy
10:15 AM 63.0 °F 56.3 °F 79% 30.18 in 10.0 mi SW 5.8 mph - N/A   Overcast
10:35 AM 63.5 °F 56.7 °F 78% 30.18 in 10.0 mi SW 3.5 mph - N/A   Overcast
10:55 AM 64.8 °F 57.2 °F 76% 30.17 in 10.0 mi SW 5.8 mph - N/A   Overcast
11:15 AM 65.8 °F 57.4 °F 74% 30.16 in 10.0 mi SW 5.8 mph - N/A   Overcast
11:35 AM 67.6 °F 57.9 °F 71% 30.15 in 10.0 mi SW 6.9 mph - N/A   Overcast
11:55 AM 68.2 °F 57.4 °F 68% 30.15 in 10.0 mi SSW 10.4 mph - N/A   Overcast
12:15 PM 68.0 °F 57.6 °F 69% 30.13 in 10.0 mi SW 5.8 mph - N/A   Overcast
12:35 PM 68.2 °F 57.0 °F 67% 30.12 in 10.0 mi SW 11.5 mph - N/A   Overcast
12:55 PM 69.3 °F 56.5 °F 64% 30.11 in 10.0 mi SW 11.5 mph 18.4 mph N/A   Overcast
1:15 PM 70.2 °F 56.3 °F 61% 30.10 in 10.0 mi SW 13.8 mph 19.6 mph N/A   Overcast
1:35 PM 69.8 °F 56.5 °F 63% 30.08 in 10.0 mi SW 9.2 mph 19.6 mph N/A   Mostly Cloudy
1:55 PM 69.8 °F 56.3 °F 62% 30.07 in 10.0 mi SW 13.8 mph 17.3 mph N/A   Scattered Clouds
2:15 PM 70.2 °F 55.9 °F 61% 30.07 in 10.0 mi SW 13.8 mph 21.9 mph N/A   Overcast
2:35 PM 70.0 °F 56.3 °F 62% 30.05 in 10.0 mi SW 11.5 mph 19.6 mph N/A   Overcast
2:55 PM 69.3 °F 55.6 °F 62% 30.04 in 10.0 mi SSW 9.2 mph 20.7 mph N/A   Mostly Cloudy
3:15 PM 69.4 °F 56.1 °F 62% 30.04 in 10.0 mi SW 12.7 mph 18.4 mph N/A   Mostly Cloudy
3:35 PM 69.1 °F 56.3 °F 64% 30.03 in 10.0 mi SW 8.1 mph - N/A   Scattered Clouds
3:55 PM 69.8 °F 56.5 °F 63% 30.03 in 10.0 mi SSW 8.1 mph - N/A   Scattered Clouds
4:15 PM 68.9 °F 56.5 °F 65% 30.02 in 10.0 mi SSW 8.1 mph 16.1 mph N/A   Clear
4:35 PM 68.2 °F 56.7 °F 67% 30.02 in 10.0 mi SSW 10.4 mph - N/A   Scattered Clouds
4:55 PM 67.8 °F 57.2 °F 69% 30.02 in 10.0 mi SSW 9.2 mph - N/A   Scattered Clouds
5:15 PM 67.1 °F 57.0 °F 70% 30.01 in 10.0 mi SW 8.1 mph - N/A   Clear
5:35 PM 66.2 °F 56.8 °F 72% 30.02 in 10.0 mi SW 9.2 mph 16.1 mph N/A   Clear
5:55 PM 65.5 °F 56.8 °F 74% 30.01 in 10.0 mi SW 5.8 mph - N/A   Clear
6:15 PM 65.3 °F 57.2 °F 75% 30.01 in 10.0 mi SW 5.8 mph - N/A   Clear
6:35 PM 64.9 °F 57.2 °F 76% 30.01 in 10.0 mi SW 8.1 mph - N/A   Clear
6:55 PM 64.9 °F 57.2 °F 76% 30.00 in 10.0 mi SW 9.2 mph - N/A   Clear
7:15 PM 64.8 °F 57.2 °F 76% 30.01 in 10.0 mi SW 8.1 mph - N/A   Clear
7:35 PM 64.4 °F 57.2 °F 77% 30.00 in 10.0 mi SW 9.2 mph - N/A   Clear
7:55 PM 64.4 °F 57.2 °F 77% 29.99 in 10.0 mi SW 8.1 mph - N/A   Clear
8:15 PM 64.0 °F 56.8 °F 77% 29.98 in 10.0 mi SW 9.2 mph 17.3 mph N/A   Clear
8:35 PM 63.7 °F 57.2 °F 79% 30.00 in 10.0 mi WSW 9.2 mph - N/A   Clear
8:55 PM 63.1 °F 56.8 °F 80% 30.01 in 10.0 mi WSW 8.1 mph - N/A   Clear
9:15 PM 63.0 °F 56.7 °F 80% 30.01 in 10.0 mi WSW 8.1 mph - N/A   Clear
9:35 PM 62.8 °F 56.7 °F 80% 30.00 in 10.0 mi WSW 9.2 mph - N/A   Clear
9:55 PM 62.6 °F 56.5 °F 80% 29.99 in 10.0 mi WSW 10.4 mph - N/A   Clear
10:15 PM 62.2 °F 55.8 °F 79% 29.98 in 10.0 mi WSW 11.5 mph 18.4 mph N/A   Clear
10:35 PM 61.9 °F 55.6 °F 80% 29.97 in 10.0 mi WSW 11.5 mph - N/A   Clear
10:55 PM 61.7 °F 55.4 °F 80% 29.96 in 10.0 mi WSW 12.7 mph - N/A   Clear
11:15 PM 62.4 °F 55.0 °F 77% 29.97 in 10.0 mi WSW 11.5 mph - N/A   Clear
11:35 PM 61.9 °F 55.0 °F 78% 29.96 in 10.0 mi WSW 11.5 mph 17.3 mph N/A   Clear
11:55 PM 61.7 °F 54.9 °F 78% 29.95 in 10.0 mi WSW 10.4 mph - N/A   Clear